[[{"header":{"parameterUnit":"m.s-1","parameterCategory":1,"la1":30.2991,"la2":30.254,"lo1":-89.0895,"lo2":-89.0444,"dy":0.0017,"dx":0.0017,"nx":28,"ny":28,"refTime":"2024-12-05T03:00:00:Z","depth":0,"parameterNumber":2,"parameterNumberName":"U-component_of_WINDS"},"data":[0,0,0,0,0,0,0,0,0,0,0,0,0,0,0,0,0,0,0,0,0,0,0,0,0,0,0,0,0,0,0,0,0,0,0,0,0,0,0,0,0,0,0,0,0,0,0,0,0,0,0,0,0,0,0,0,0,0,-1.4395,-1.4395,0,-1.4375,-1.4375,-1.4375,-1.4327,-1.4326,-1.4325,-1.4324,-1.4305,-1.4306,-1.4306,0,0,0,0,0,0,0,0,0,0,0,0,0,-1.4393,-1.4393,-1.4395,-1.4395,-1.4394,-1.4375,-1.4375,-1.4374,-1.4327,-1.4326,-1.4325,-1.4324,-1.4305,-1.4306,-1.4306,0,0,0,0,0,0,0,0,0,0,0,0,0,-1.4386,-1.4393,-1.4395,-1.4369,-1.4366,-1.4375,-1.4375,-1.4374,-1.4328,-1.4326,-1.4325,-1.4323,-1.4305,-1.4306,-1.4306,-1.434,0,0,-1.4308,-1.4308,0,0,0,0,0,0,0,0,-1.4386,-1.4386,-1.4373,-1.437,-1.4368,-1.4352,-1.4367,-1.4363,-1.4328,-1.4342,-1.4324,-1.4323,-1.4322,-1.4321,-1.4321,-1.4339,-1.4338,-1.4308,-1.4309,-1.4309,-1.4309,0,0,0,0,0,0,0,-1.4387,-1.4386,-1.4387,-1.4373,-1.4369,-1.4358,-1.4355,-1.4366,-1.4341,-1.4341,-1.4337,-1.4336,-1.432,-1.432,-1.432,-1.4338,-1.4308,-1.4309,-1.4309,-1.4309,-1.4382,-1.4384,0,0,0,0,0,0,-1.4391,-1.4387,-1.4388,-1.4386,-1.4373,-1.4359,-1.4356,-1.4359,-1.4341,-1.4336,-1.4337,-1.4334,-1.432,-1.4319,-1.4319,-1.4358,-1.4309,-1.4309,-1.431,-1.4381,-1.4383,-1.4384,0,0,0,0,0,0,-1.4391,-1.4391,-1.4388,-1.4386,-1.4385,-1.4361,-1.4364,-1.4359,-1.4359,-1.4338,-1.4333,-1.4341,-1.4319,-1.4318,-1.4335,-1.4356,-1.431,-1.431,-1.4379,-1.4381,-1.4383,-1.4435,0,0,0,0,0,0,-1.4391,-1.4392,-1.4404,-1.4386,-1.4385,-1.4405,-1.4365,-1.436,-1.436,-1.4355,-1.4341,-1.4337,-1.4318,-1.4334,-1.4336,-1.4356,-1.4311,-1.4377,-1.438,-1.4383,-1.4431,-1.4438,-1.4445,0,0,0,0,0,-1.4391,-1.442,-1.4405,-1.4405,-1.44,-1.4406,-1.4405,-1.4382,-1.4362,-1.4374,-1.436,-1.4337,-1.4353,-1.4336,-1.4337,-1.4359,-1.4375,-1.4379,-1.4382,-1.4428,-1.4437,-1.4445,0,0,0,0,0,0,-1.4441,-1.4417,-1.44,-1.4424,-1.4417,-1.4398,-1.4413,-1.4392,-1.4392,-1.4388,-1.4359,-1.4357,-1.4377,-1.4369,-1.4351,-1.439,-1.4361,-1.4365,-1.4395,-1.4403,-1.441,-1.4412,-1.4311,0,0,0,0,0,-1.4455,-1.4461,-1.444,-1.4462,-1.446,-1.4437,-1.4439,-1.4422,-1.4414,-1.4411,-1.4398,-1.4392,-1.4396,-1.4399,-1.4401,-1.4429,-1.4425,-1.4444,-1.4451,-1.4457,-1.4461,-1.4475,-1.4484,-1.4396,-1.4396,-1.4396,0,0,-1.4483,-1.4471,-1.4477,-1.4472,-1.4465,-1.4473,-1.4435,-1.4445,-1.4451,-1.4413,-1.4428,-1.4418,-1.4409,-1.4432,-1.4441,-1.4426,-1.4484,-1.4461,-1.4466,-1.4467,-1.448,-1.4488,-1.4496,-1.4398,-1.4398,-1.4397,0,0,-1.4539,-1.453,-1.4548,-1.4541,-1.4531,-1.4515,-1.452,-1.4503,-1.4495,-1.451,-1.4481,-1.4488,-1.4494,-1.4489,-1.4487,-1.4541,-1.4519,-1.4542,-1.4579,-1.4593,-1.46,-1.4606,-1.4626,-1.4633,-1.4546,-1.4546,-1.4546,0,-1.4576,-1.4586,-1.456,-1.4572,-1.4571,-1.4536,-1.4554,-1.4549,-1.454,-1.454,-1.4523,-1.453,-1.4522,-1.4543,-1.4556,-1.4555,-1.456,-1.4544,-1.4601,-1.4607,-1.4612,-1.4631,-1.4638,-1.4549,-1.4548,-1.4548,-1.4548,0,-1.4633,-1.464,-1.4656,-1.4648,-1.4648,-1.4663,-1.4639,-1.4643,-1.4625,-1.4612,-1.4627,-1.4615,-1.4615,-1.4618,-1.4601,-1.4637,-1.4628,-1.4606,-1.4576,-1.4624,-1.4641,-1.4648,-1.4553,-1.4552,-1.4551,-1.455,0,0,-1.4721,-1.4697,-1.4703,-1.4699,-1.4684,-1.469,-1.4703,-1.4702,-1.4706,-1.47,-1.4711,-1.4717,-1.4697,-1.4695,-1.4677,-1.469,-1.4733,-1.4667,-1.4666,-1.468,-1.4772,-1.479,-1.4798,-1.4719,-1.472,-1.4721,-1.4773,0,-1.4774,-1.4795,-1.4772,-1.4798,-1.4805,-1.4771,-1.4782,-1.4775,-1.4762,-1.4766,-1.4752,-1.4757,-1.473,-1.4729,-1.474,-1.4726,-1.4752,-1.4721,-1.4729,-1.473,-1.4734,-1.4807,-1.4825,-1.4875,-1.478,-1.4781,-1.4782,0,-1.484,-1.4837,-1.4864,-1.4847,-1.4849,-1.486,-1.4856,-1.486,-1.4851,-1.4841,-1.4839,-1.4817,-1.4829,-1.4799,-1.4815,-1.4795,-1.4796,-1.479,-1.4791,-1.4792,-1.476,-1.4811,-1.4891,-1.4899,-1.4792,-1.4791,-1.479,0,-1.4902,-1.4905,-1.4922,-1.4919,-1.4899,-1.4908,-1.49,-1.4889,-1.489,-1.4887,-1.4887,-1.4886,-1.4886,-1.4885,-1.4864,-1.4844,-1.4883,-1.4851,-1.4876,-1.4876,-1.4887,-1.4887,-1.4969,-1.4886,-1.4886,-1.4886,-1.4885,0,-1.4965,-1.4983,-1.4949,-1.496,-1.4979,-1.4951,-1.4971,-1.496,-1.495,-1.4958,-1.4929,-1.4937,-1.4907,-1.4912,-1.4895,-1.4912,-1.4911,-1.4904,-1.49,-1.4907,-1.4909,-1.4909,-1.4905,-1.4888,-1.4887,-1.4887,-1.4886,0,-1.5039,-1.5017,-1.5033,-1.5013,-1.5008,-1.5024,-1.5007,-1.5015,-1.5,-1.5011,-1.5011,-1.4988,-1.4992,-1.497,-1.497,-1.4959,-1.4984,-1.4973,-1.4988,-1.4985,-1.5011,-1.5009,-1.5098,-1.5108,-1.5017,-1.5018,-1.5019,0,-1.5082,-1.5094,-1.5076,-1.5078,-1.5072,-1.5077,-1.5077,-1.505,-1.5052,-1.5042,-1.5052,-1.5054,-1.5054,-1.5062,-1.5045,-1.5045,-1.5035,-1.5066,-1.5035,-1.5042,-1.5036,-1.5036,-1.5038,-1.5073,-1.5074,-1.5075,-1.5075,0,-1.5159,-1.5147,-1.5149,-1.5146,-1.5147,-1.5144,-1.5139,-1.5143,-1.5114,-1.5117,-1.512,-1.512,-1.512,-1.5123,-1.5119,-1.5111,-1.5089,-1.5085,-1.5091,-1.51,-1.5108,-1.5105,-1.5007,-1.5084,-1.5083,-1.5082,-1.5082,-1.5081,-1.5219,-1.5229,-1.5217,-1.522,-1.5213,-1.5209,-1.5216,-1.5201,-1.5204,-1.5201,-1.5185,-1.5192,-1.5182,-1.5174,-1.5169,-1.5174,-1.5159,-1.5168,-1.517,-1.5173,-1.5178,-1.5106,-1.5173,-1.5173,-1.5173,-1.5172,-1.5172,0,-1.5296,-1.5286,-1.5289,-1.5282,-1.5284,-1.5262,-1.5255,-1.5258,-1.5264,-1.5256,-1.5256,-1.5261,-1.5262,-1.5245,-1.5245,-1.5252,-1.5242,-1.5253,-1.5253,-1.5252,-1.5191,-1.5186,-1.5262,-1.5262,-1.5262,-1.5262,-1.5262,-1.5261,-1.5336,-1.5352,-1.5339,-1.5351,-1.5341,-1.5347,-1.5345,-1.5341,-1.5335,-1.5341,-1.5342,-1.533,-1.5319,-1.5317,-1.5318,-1.5313,-1.5315,-1.533,-1.5321,-1.5265,-1.5256,-1.5248,-1.5243,-1.533,-1.533,-1.5382,-1.5383,-1.5383]},{"header":{"parameterUnit":"m.s-1","parameterCategory":1,"la1":30.2991,"la2":30.254,"lo1":-89.0895,"lo2":-89.0444,"dy":0.0017,"dx":0.0017,"nx":28,"ny":28,"refTime":"2024-12-05T03:00:00:Z","depth":0,"parameterNumber":3,"parameterNumberName":"V-component_of_WINDS"},"data":[0,0,0,0,0,0,0,0,0,0,0,0,0,0,0,0,0,0,0,0,0,0,0,0,0,0,0,0,0,0,0,0,0,0,0,0,0,0,0,0,0,0,0,0,0,0,0,0,0,0,0,0,0,0,0,0,0,0,-5.2335,-5.2335,0,-5.2382,-5.2382,-5.2383,-5.2339,-5.2337,-5.2336,-5.2334,-5.2377,-5.238,-5.2383,0,0,0,0,0,0,0,0,0,0,0,0,0,-5.2203,-5.2206,-5.2335,-5.2335,-5.2336,-5.2382,-5.2382,-5.2383,-5.2339,-5.2337,-5.2335,-5.2333,-5.2376,-5.2379,-5.2383,0,0,0,0,0,0,0,0,0,0,0,0,0,-5.2256,-5.2207,-5.2335,-5.232,-5.2319,-5.2381,-5.2382,-5.2383,-5.234,-5.2337,-5.2335,-5.2332,-5.2375,-5.2379,-5.2383,-5.2461,0,0,-5.2396,-5.2398,0,0,0,0,0,0,0,0,-5.2253,-5.2261,-5.2322,-5.2321,-5.232,-5.2352,-5.2352,-5.2409,-5.234,-5.2332,-5.2334,-5.2331,-5.2371,-5.2375,-5.2389,-5.2463,-5.2465,-5.2396,-5.2399,-5.2401,-5.2402,0,0,0,0,0,0,0,-5.225,-5.2259,-5.2353,-5.2322,-5.2322,-5.2309,-5.2314,-5.2362,-5.2365,-5.2332,-5.2329,-5.2336,-5.237,-5.2385,-5.239,-5.2466,-5.2396,-5.24,-5.2402,-5.2404,-5.2607,-5.2609,0,0,0,0,0,0,-5.2248,-5.2256,-5.2352,-5.2355,-5.228,-5.2314,-5.2319,-5.2344,-5.2364,-5.2365,-5.2338,-5.2334,-5.238,-5.2385,-5.2391,-5.2485,-5.2401,-5.2404,-5.2407,-5.2604,-5.2607,-5.261,0,0,0,0,0,0,-5.2246,-5.2257,-5.235,-5.2305,-5.2315,-5.2319,-5.2348,-5.2347,-5.2362,-5.2369,-5.2368,-5.2354,-5.2378,-5.2385,-5.2445,-5.2486,-5.2406,-5.241,-5.26,-5.2605,-5.2609,-5.2672,0,0,0,0,0,0,-5.2242,-5.2257,-5.2287,-5.2306,-5.2318,-5.2404,-5.235,-5.2349,-5.237,-5.2365,-5.2384,-5.2384,-5.2376,-5.2439,-5.2449,-5.249,-5.2413,-5.2597,-5.2602,-5.2607,-5.2666,-5.2678,-5.2688,0,0,0,0,0,-5.2238,-5.2302,-5.2289,-5.2301,-5.2357,-5.2406,-5.2413,-5.2404,-5.2374,-5.2404,-5.2408,-5.2383,-5.2479,-5.2445,-5.2456,-5.2499,-5.2594,-5.2601,-5.2607,-5.2661,-5.2676,-5.2688,0,0,0,0,0,0,-5.2286,-5.2304,-5.229,-5.2362,-5.2384,-5.2399,-5.2437,-5.2419,-5.2448,-5.2442,-5.2428,-5.2433,-5.2496,-5.2503,-5.2464,-5.2576,-5.2532,-5.2541,-5.2569,-5.2583,-5.2593,-5.2591,-5.2417,0,0,0,0,0,-5.2305,-5.2346,-5.2358,-5.2421,-5.2433,-5.2433,-5.2454,-5.2446,-5.2466,-5.2474,-5.2483,-5.2502,-5.2537,-5.256,-5.2592,-5.2667,-5.267,-5.2702,-5.2713,-5.2721,-5.273,-5.2771,-5.2785,-5.2632,-5.2632,-5.2631,0,0,-5.2345,-5.236,-5.2386,-5.2431,-5.2447,-5.2488,-5.2441,-5.2486,-5.2516,-5.2481,-5.2538,-5.2545,-5.2566,-5.2634,-5.2664,-5.2642,-5.2773,-5.273,-5.2737,-5.274,-5.2779,-5.2793,-5.2806,-5.2636,-5.2635,-5.2635,0,0,-5.2439,-5.2455,-5.2509,-5.2526,-5.2551,-5.2551,-5.2564,-5.2582,-5.2586,-5.2644,-5.2619,-5.2653,-5.2713,-5.273,-5.2746,-5.2847,-5.2826,-5.2858,-5.2915,-5.2955,-5.2967,-5.2977,-5.3014,-5.3028,-5.2865,-5.2866,-5.2866,0,-5.2486,-5.2548,-5.2539,-5.2587,-5.2608,-5.2579,-5.2634,-5.265,-5.2683,-5.2698,-5.2673,-5.2748,-5.276,-5.2832,-5.2857,-5.287,-5.2885,-5.2856,-5.2966,-5.2977,-5.2986,-5.3022,-5.3035,-5.2869,-5.2869,-5.2869,-5.2868,0,-5.2604,-5.2648,-5.2689,-5.2724,-5.2749,-5.28,-5.2797,-5.2824,-5.2813,-5.2815,-5.2874,-5.2888,-5.2923,-5.2939,-5.2928,-5.3009,-5.2995,-5.2968,-5.2923,-5.3005,-5.3038,-5.3051,-5.2875,-5.2874,-5.2872,-5.2872,0,0,-5.273,-5.2761,-5.2776,-5.2792,-5.2818,-5.2851,-5.29,-5.2936,-5.2959,-5.2982,-5.3024,-5.3075,-5.3051,-5.307,-5.306,-5.3095,-5.3176,-5.3064,-5.3064,-5.3085,-5.3267,-5.3288,-5.3304,-5.3162,-5.3164,-5.3166,-5.3266,0,-5.2826,-5.2915,-5.2908,-5.2991,-5.3031,-5.3005,-5.3048,-5.3068,-5.3072,-5.3105,-5.3108,-5.3146,-5.311,-5.3121,-5.3155,-5.3159,-5.3213,-5.3152,-5.3199,-5.3201,-5.3196,-5.3321,-5.3343,-5.3437,-5.3279,-5.3281,-5.3282,0,-5.295,-5.2981,-5.3069,-5.3089,-5.3106,-5.3145,-5.3178,-5.3211,-5.3232,-5.3232,-5.3254,-5.3238,-5.3287,-5.3241,-5.3308,-5.3267,-5.3286,-5.3291,-5.3294,-5.3299,-5.3248,-5.333,-5.3466,-5.3481,-5.3302,-5.3301,-5.3299,0,-5.3035,-5.3098,-5.3159,-5.3173,-5.3198,-5.3227,-5.3238,-5.3257,-5.328,-5.3308,-5.3322,-5.3355,-5.3373,-5.3398,-5.3392,-5.3358,-5.346,-5.3413,-5.3462,-5.3462,-5.3485,-5.3484,-5.3627,-5.3495,-5.3495,-5.3495,-5.3495,0,-5.3144,-5.3199,-5.3198,-5.3235,-5.3296,-5.3287,-5.3346,-5.3354,-5.3372,-5.3409,-5.3388,-5.3423,-5.3412,-5.3447,-5.3442,-5.3499,-5.3507,-5.3508,-5.3506,-5.3511,-5.3511,-5.3523,-5.3517,-5.3499,-5.3498,-5.3497,-5.3496,0,-5.3249,-5.3251,-5.3316,-5.3335,-5.3341,-5.3385,-5.34,-5.3435,-5.3437,-5.3485,-5.3496,-5.3499,-5.3539,-5.3535,-5.3579,-5.3576,-5.3646,-5.3636,-5.364,-5.3638,-5.3687,-5.3683,-5.3844,-5.3866,-5.3719,-5.3721,-5.3722,0,-5.3319,-5.3361,-5.3386,-5.3411,-5.3425,-5.3464,-5.3488,-5.348,-5.3506,-5.3534,-5.3565,-5.3604,-5.3634,-5.3699,-5.3704,-5.3737,-5.3729,-5.3783,-5.3733,-5.3737,-5.3731,-5.3729,-5.3733,-5.3793,-5.3794,-5.3796,-5.3797,0,-5.3444,-5.3443,-5.3478,-5.3515,-5.3544,-5.3572,-5.3597,-5.3618,-5.3613,-5.3642,-5.3684,-5.3708,-5.3754,-5.3792,-5.3824,-5.3834,-5.3815,-5.3812,-5.3826,-5.3831,-5.3832,-5.3834,-5.3668,-5.3809,-5.3808,-5.3807,-5.3806,-5.3806,-5.3534,-5.3571,-5.3595,-5.3635,-5.3654,-5.3678,-5.3713,-5.372,-5.3755,-5.3794,-5.3786,-5.3833,-5.3854,-5.3895,-5.3909,-5.3944,-5.3925,-5.3943,-5.3948,-5.3953,-5.396,-5.3826,-5.395,-5.395,-5.3949,-5.3949,-5.3949,0,-5.3658,-5.3673,-5.371,-5.3748,-5.378,-5.376,-5.3787,-5.3815,-5.3858,-5.3879,-5.391,-5.3958,-5.3995,-5.4004,-5.4039,-5.4066,-5.4058,-5.4076,-5.4074,-5.4077,-5.3975,-5.3961,-5.4082,-5.4082,-5.4082,-5.4082,-5.4082,-5.4082,-5.3727,-5.3789,-5.3791,-5.3861,-5.3874,-5.3922,-5.3939,-5.3961,-5.3979,-5.4034,-5.4066,-5.4072,-5.4088,-5.4125,-5.4158,-5.4159,-5.4174,-5.4195,-5.4193,-5.4097,-5.4084,-5.4072,-5.4058,-5.4198,-5.4198,-5.4292,-5.4293,-5.4294]}]]